Tracking 21470 objects as of 23-Sep-2020
HD Live streaming from Space Station
objects crossing your sky now

STARLINK-1165

Track STARLINK-1165 now!
10-day predictions
STARLINK-1165 is classified as:


NORAD ID: 45059
Int'l Code: 2020-006R
Perigee: 556.0 km
Apogee: 557.7 km
Inclination: 53.0 °
Period: 95.6 minutes
Semi major axis: 6927 km
RCS: Unknown
Launch date: January 29, 2020
Source: United States (US)
Launch site: AIR FORCE EASTERN TEST RANGE (AFETR)
aabbcc
Your satellite tracking list
Your tracking list is empty




NASA's NSSDC Master Catalog

Two Line Element Set (TLE):
1 45059U 20006R   20266.91667824 +.00021616 +00000-0 +14979-2 0  9998
2 45059 053.0002 237.0092 0001253 084.4915 258.4337 15.05586087001806
Source of the keplerian elements: AFSPC